[[{"header":{"parameterUnit":"m.s-1","parameterCategory":1,"la1":30.2991,"la2":30.254,"lo1":-89.0895,"lo2":-89.0444,"dy":0.0017,"dx":0.0017,"nx":28,"ny":28,"refTime":"2026-02-25T09:00:00:Z","depth":0,"parameterNumber":2,"parameterNumberName":"U-component_of_WINDS"},"data":[0,0,0,0,0,0,0,0,0,0,0,0,0,0,0,0,0,0,0,0,0,0,0,0,0,0,0,0,0,0,0,0,0,0,0,0,0,0,0,0,0,0,0,0,0,0,0,0,0,0,0,0,0,0,0,0,0,0,1.9678,1.9681,0,1.9899,1.9902,1.9904,1.9935,1.9933,1.9931,1.9929,2.0156,2.0164,2.0172,0,0,0,0,0,0,0,0,0,0,0,0,0,1.9282,1.9289,1.9678,1.9681,1.9684,1.9899,1.9902,1.9905,1.9936,1.9933,1.993,1.9928,2.0154,2.0163,2.0173,0,0,0,0,0,0,0,0,0,0,0,0,0,1.9474,1.9292,1.9678,1.9725,1.9731,1.9898,1.9902,1.9906,1.9936,1.9933,1.993,1.9927,2.0151,2.0162,2.0174,2.031,0,0,2.0211,2.0216,0,0,0,0,0,0,0,0,1.9463,1.9488,1.9715,1.9722,1.9729,1.9886,1.9846,2.0041,1.9937,1.9858,1.9929,1.9925,2.0069,2.0088,2.0136,2.032,2.033,2.0212,2.0219,2.0224,2.0227,0,0,0,0,0,0,0,1.9449,1.9479,1.9766,1.9718,1.9727,1.9735,1.9759,1.9883,1.9978,1.9865,1.9868,1.9893,2.0072,2.0124,2.0141,2.0333,2.0211,2.0222,2.0229,2.0234,2.0637,2.0641,0,0,0,0,0,0,1.9428,1.9468,1.9759,1.9772,1.9586,1.9744,1.9771,1.9839,1.9977,1.9995,1.9896,1.9894,2.0105,2.0127,2.0149,2.0315,2.0224,2.0235,2.0242,2.0634,2.0638,2.0642,0,0,0,0,0,0,1.9419,1.9453,1.975,1.9621,1.9659,1.9755,1.9831,1.9845,1.9897,2.0,2.0018,1.9931,2.0104,2.0133,2.0269,2.0324,2.024,2.0251,2.063,2.0635,2.064,2.0649,0,0,0,0,0,0,1.9407,1.945,1.9503,1.9622,1.9666,1.9866,1.9834,1.9852,1.9917,1.9917,2.0038,2.0055,2.0104,2.0251,2.0281,2.0339,2.0261,2.0625,2.0632,2.0638,2.0644,2.0654,2.0662,0,0,0,0,0,1.9393,1.9497,1.9505,1.954,1.9734,1.9869,1.9894,1.9947,1.9922,1.9975,2.0041,2.0051,2.0313,2.0265,2.0299,2.0361,2.0622,2.063,2.0638,2.064,2.0652,2.0662,0,0,0,0,0,0,1.9383,1.9514,1.9524,1.967,1.9758,1.9874,1.9943,1.9958,2.0056,2.0052,2.0114,2.0141,2.0273,2.0331,2.0275,2.0498,2.0465,2.048,2.0455,2.0467,2.0476,2.0459,2.0271,0,0,0,0,0,1.9397,1.9496,1.9605,1.9723,1.9767,1.9847,1.9908,1.9941,2.0035,2.0072,2.0149,2.0239,2.0342,2.0408,2.0508,2.0653,2.0679,2.0712,2.0721,2.0728,2.074,2.0818,2.0834,2.0668,2.0668,2.0668,0,0,1.9429,1.9512,1.9571,1.9723,1.9795,1.9895,1.9878,1.9986,2.006,2.0089,2.0221,2.028,2.0386,2.0526,2.0591,2.0578,2.0792,2.0738,2.0743,2.0751,2.0828,2.0844,2.0858,2.0674,2.0673,2.0672,0,0,1.9536,1.9611,1.9716,1.9788,1.9897,1.9949,1.9974,2.0088,2.0128,2.0262,2.0284,2.0374,2.055,2.0623,2.0684,2.0817,2.0829,2.0848,2.0895,2.097,2.0983,2.0995,2.1041,2.1056,2.086,2.086,2.086,0,1.9562,1.9713,1.9768,1.9874,1.9939,1.9969,2.0075,2.0142,2.0279,2.0323,2.0306,2.0525,2.0599,2.0755,2.0787,2.0836,2.0865,2.0834,2.0977,2.0989,2.1001,2.1045,2.1062,2.0861,2.0861,2.0861,2.0861,0,1.9737,1.9842,1.9914,2.0043,2.0117,2.0223,2.0292,2.036,2.0387,2.0441,2.0576,2.0664,2.0782,2.0822,2.085,2.0982,2.097,2.0964,2.0932,2.1017,2.106,2.1077,2.0863,2.0863,2.0862,2.0862,0,0,1.9845,2.0002,2.0027,2.0085,2.0207,2.0289,2.0395,2.0509,2.0565,2.0658,2.0748,2.0895,2.089,2.0958,2.0994,2.1061,2.1157,2.1047,2.105,2.1062,2.1306,2.1308,2.1327,2.1167,2.117,2.1173,2.1297,0,1.9965,2.0155,2.0206,2.0366,2.0463,2.0492,2.0584,2.0668,2.0721,2.081,2.0869,2.0972,2.0958,2.0999,2.1067,2.1131,2.1207,2.1123,2.125,2.1253,2.122,2.135,2.1353,2.1465,2.1314,2.1317,2.1319,0,2.0131,2.0225,2.0394,2.0501,2.0544,2.0626,2.0733,2.0819,2.0914,2.0948,2.1023,2.1053,2.1164,2.1127,2.1279,2.1221,2.1276,2.1315,2.1321,2.1334,2.129,2.1364,2.1503,2.1519,2.1346,2.1344,2.1342,0,2.0189,2.0359,2.0482,2.0531,2.0659,2.0716,2.0772,2.0865,2.0929,2.1023,2.1066,2.1172,2.123,2.1311,2.1368,2.1336,2.1515,2.1483,2.1545,2.1544,2.1581,2.1577,2.1728,2.1619,2.1618,2.1618,2.1618,0,2.0316,2.0419,2.0509,2.0584,2.0699,2.0757,2.0869,2.0926,2.1008,2.1094,2.1127,2.1207,2.1279,2.1368,2.1414,2.1532,2.1559,2.1588,2.1599,2.1585,2.158,2.162,2.1613,2.1623,2.1622,2.1621,2.162,0,2.0401,2.0466,2.0601,2.0711,2.0741,2.082,2.0914,2.0988,2.1042,2.1151,2.118,2.1264,2.1371,2.1436,2.1573,2.1603,2.1733,2.1742,2.17,2.1705,2.1762,2.1755,2.1943,2.1969,2.1843,2.1844,2.1845,0,2.0477,2.0556,2.0674,2.0733,2.079,2.0886,2.0952,2.1012,2.1078,2.1192,2.1252,2.1361,2.1451,2.1621,2.1694,2.1798,2.1808,2.1867,2.1824,2.1807,2.1807,2.1801,2.1808,2.1874,2.1875,2.1876,2.1876,0,2.0604,2.0632,2.0725,2.0829,2.0906,2.0991,2.1076,2.1123,2.1197,2.127,2.138,2.145,2.1588,2.1695,2.1805,2.1863,2.1882,2.1889,2.1909,2.1894,2.1866,2.188,2.1718,2.1884,2.1884,2.1883,2.1883,2.1882,2.0686,2.0756,2.085,2.0952,2.1021,2.1099,2.1173,2.1235,2.1327,2.1444,2.1474,2.1588,2.168,2.1829,2.1889,2.1979,2.197,2.1999,2.2006,2.2012,2.2012,2.1853,2.2,2.2,2.2,2.2,2.1999,0,2.0813,2.0874,2.0968,2.1084,2.1164,2.1174,2.1268,2.1334,2.1434,2.1518,2.1606,2.173,2.1834,2.1915,2.2021,2.2078,2.2089,2.2103,2.2099,2.2112,2.2015,2.1986,2.2092,2.2092,2.2092,2.2092,2.2092,2.2092,2.0889,2.1008,2.1046,2.12,2.126,2.1372,2.1424,2.1496,2.1563,2.17,2.1786,2.1838,2.1921,2.2033,2.2128,2.2149,2.2186,2.2199,2.2221,2.2129,2.2119,2.2109,2.2083,2.2207,2.2207,2.2311,2.2312,2.2312]},{"header":{"parameterUnit":"m.s-1","parameterCategory":1,"la1":30.2991,"la2":30.254,"lo1":-89.0895,"lo2":-89.0444,"dy":0.0017,"dx":0.0017,"nx":28,"ny":28,"refTime":"2026-02-25T09:00:00:Z","depth":0,"parameterNumber":3,"parameterNumberName":"V-component_of_WINDS"},"data":[0,0,0,0,0,0,0,0,0,0,0,0,0,0,0,0,0,0,0,0,0,0,0,0,0,0,0,0,0,0,0,0,0,0,0,0,0,0,0,0,0,0,0,0,0,0,0,0,0,0,0,0,0,0,0,0,0,0,4.2682,4.2684,0,4.2933,4.2936,4.2939,4.2954,4.2951,4.2948,4.2946,4.3198,4.3207,4.3217,0,0,0,0,0,0,0,0,0,0,0,0,0,4.2207,4.2215,4.2681,4.2685,4.2688,4.2933,4.2936,4.294,4.2954,4.2951,4.2948,4.2944,4.3195,4.3206,4.3218,0,0,0,0,0,0,0,0,0,0,0,0,0,4.2431,4.2218,4.2681,4.2725,4.2731,4.2932,4.2937,4.2941,4.2955,4.2951,4.2947,4.2943,4.3191,4.3205,4.3219,4.3392,0,0,4.3262,4.3268,0,0,0,0,0,0,0,0,4.2418,4.2448,4.2715,4.2722,4.273,4.2908,4.2862,4.3092,4.2956,4.287,4.2945,4.294,4.3105,4.3126,4.3182,4.3404,4.3415,4.3263,4.3272,4.3278,4.3282,0,0,0,0,0,0,0,4.2403,4.2438,4.2781,4.2719,4.2728,4.273,4.2757,4.2905,4.3008,4.2877,4.2879,4.2909,4.3108,4.3169,4.3188,4.3418,4.3263,4.3276,4.3284,4.329,4.3791,4.3796,0,0,0,0,0,0,4.238,4.2425,4.2773,4.2788,4.256,4.2742,4.2772,4.2855,4.3007,4.3026,4.2912,4.2909,4.3147,4.3172,4.3197,4.3408,4.3278,4.3291,4.3299,4.3786,4.3792,4.3797,0,0,0,0,0,0,4.2369,4.2411,4.2763,4.2607,4.2652,4.2755,4.2847,4.2862,4.2923,4.3033,4.3051,4.2956,4.3144,4.3177,4.3343,4.3417,4.3297,4.331,4.3781,4.3788,4.3795,4.3832,0,0,0,0,0,0,4.2356,4.2407,4.2475,4.2609,4.2661,4.2907,4.2852,4.287,4.2948,4.2946,4.3079,4.3097,4.3143,4.3322,4.3357,4.3434,4.3321,4.3774,4.3784,4.3793,4.3824,4.3839,4.3852,0,0,0,0,0,4.2339,4.2475,4.2479,4.2521,4.2749,4.2911,4.294,4.2993,4.2954,4.3022,4.3093,4.3093,4.3403,4.3339,4.3379,4.3461,4.377,4.3781,4.3792,4.3818,4.3836,4.3852,0,0,0,0,0,0,4.2347,4.2493,4.2499,4.2683,4.2785,4.2913,4.3002,4.3011,4.3125,4.3117,4.3176,4.3206,4.3369,4.3432,4.3358,4.3635,4.3582,4.3601,4.3588,4.3607,4.362,4.3601,4.3333,0,0,0,0,0,4.237,4.2491,4.2612,4.2763,4.2814,4.2899,4.2972,4.3003,4.311,4.3152,4.3235,4.3337,4.3457,4.3535,4.3652,4.3833,4.3861,4.3909,4.3923,4.3934,4.395,4.4047,4.4069,4.3833,4.3833,4.3833,0,0,4.2419,4.2514,4.2587,4.2767,4.2849,4.2972,4.2935,4.3066,4.3157,4.3172,4.3334,4.3397,4.3515,4.3688,4.3769,4.3745,4.4021,4.3948,4.3956,4.3966,4.4061,4.4083,4.4103,4.3841,4.384,4.3838,0,0,4.2571,4.2656,4.279,4.2873,4.2999,4.3054,4.3086,4.3213,4.3256,4.342,4.3433,4.354,4.3747,4.383,4.3899,4.4079,4.4082,4.4115,4.4188,4.4282,4.4301,4.4318,4.438,4.4402,4.4131,4.4131,4.4131,0,4.2616,4.2803,4.2857,4.2989,4.3066,4.3086,4.322,4.3298,4.3454,4.3506,4.3478,4.3737,4.3817,4.4009,4.4053,4.4109,4.4145,4.41,4.4294,4.4312,4.4328,4.4388,4.4412,4.4134,4.4134,4.4133,4.4133,0,4.285,4.2979,4.3072,4.3224,4.3312,4.3444,4.3516,4.3598,4.3621,4.3678,4.3843,4.394,4.4076,4.4124,4.4148,4.4319,4.43,4.4282,4.423,4.4353,4.441,4.4434,4.4139,4.4137,4.4136,4.4136,0,0,4.3016,4.3195,4.3228,4.3295,4.3434,4.3534,4.3665,4.38,4.3868,4.3974,4.4084,4.4258,4.4242,4.432,4.4353,4.4436,4.457,4.4409,4.4412,4.4434,4.4762,4.4774,4.48,4.4573,4.4578,4.4582,4.4752,0,4.3182,4.3419,4.347,4.3673,4.3792,4.3811,4.3925,4.4021,4.4078,4.4184,4.4246,4.4368,4.4339,4.4385,4.4469,4.4537,4.4637,4.4525,4.4674,4.4679,4.4644,4.483,4.4844,4.4999,4.4775,4.4778,4.4781,0,4.3408,4.352,4.3735,4.3856,4.3908,4.401,4.4136,4.4239,4.4347,4.4382,4.4468,4.4492,4.4626,4.4568,4.4753,4.4676,4.4739,4.4781,4.4789,4.4804,4.4737,4.4849,4.505,4.5073,4.4817,4.4815,4.4812,0,4.3504,4.371,4.3864,4.3922,4.4068,4.4138,4.4202,4.4306,4.4383,4.4492,4.4541,4.4664,4.4731,4.4825,4.488,4.4833,4.506,4.5006,4.509,4.5089,4.5137,4.5133,4.535,4.518,4.518,4.5179,4.5179,0,4.3684,4.3814,4.3909,4.4005,4.415,4.4207,4.4349,4.4412,4.4504,4.4609,4.4633,4.4731,4.4799,4.4905,4.4949,4.5094,4.5125,4.5155,4.5165,4.5153,4.5148,4.5195,4.5185,4.5185,4.5184,4.5183,4.5182,0,4.3817,4.3886,4.4056,4.4179,4.4213,4.4315,4.4419,4.4511,4.4567,4.47,4.4735,4.4823,4.4949,4.5014,4.5172,4.5201,4.5364,4.5368,4.5328,4.5332,4.5411,4.5402,4.5665,4.5701,4.5508,4.5509,4.5511,0,4.3927,4.4028,4.4162,4.4235,4.43,4.4418,4.4496,4.4555,4.4635,4.4764,4.4839,4.4968,4.5074,4.5275,4.5351,4.5471,4.5477,4.5561,4.5495,4.5479,4.5477,4.547,4.5479,4.5572,4.5574,4.5575,4.5577,0,4.4114,4.4142,4.4255,4.438,4.4472,4.4573,4.4672,4.473,4.4804,4.4892,4.5023,4.5105,4.5266,4.5392,4.5517,4.558,4.559,4.5597,4.5622,4.561,4.5582,4.5597,4.5358,4.559,4.5589,4.5588,4.5587,4.5587,4.4238,4.4327,4.4435,4.4559,4.464,4.4731,4.4823,4.489,4.5001,4.5137,4.5165,4.5302,4.5405,4.5575,4.5641,4.5748,4.573,4.5767,4.5776,4.5784,4.5788,4.5566,4.5771,4.5771,4.577,4.577,4.577,0,4.4424,4.4494,4.4608,4.4746,4.4843,4.4845,4.4954,4.5034,4.5155,4.5251,4.5355,4.5503,4.5625,4.5711,4.5834,4.5903,4.591,4.5933,4.5928,4.5942,4.5798,4.5763,4.5925,4.5925,4.5925,4.5924,4.5924,4.5924,4.4533,4.4684,4.4725,4.4915,4.4984,4.512,4.5182,4.5265,4.5342,4.5507,4.5609,4.5664,4.5755,4.5885,4.5996,4.6017,4.6061,4.6084,4.6105,4.5969,4.5952,4.5937,4.5904,4.6093,4.6093,4.624,4.6241,4.6242]}]]